Regional Weather Roundup
Issued by NWS Raleigh/Durham, NC

Home | Current Version | Previous Version | Text Only | Print | Product List | Glossary On
Versions: 1 2 3 4 5 6 7 8 9 10 11 12 13 14 15 16 17 18 19 20 21 22 23 24 25 26 27 28 29 30 31 32 33 34 35 36 37 38 39 40 41 42 43 44 45 46 47 48 49 50
000
ASUS42 KRAH 231710
RWRRAH
NORTH CAROLINA WEATHER ROUNDUP
NATIONAL WEATHER SERVICE RALEIGH NC
100 PM EDT SAT AUG 23 2014

NOTE: "FAIR" INDICATES FEW OR NO CLOUDS BELOW 12,000 FEET WITH NO
SIGNIFICANT WEATHER AND/OR OBSTRUCTIONS TO VISIBILITY.

NCZ001-053-055-056-065-067-231800-
WESTERN NORTH CAROLINA

CITY           SKY/WX    TMP DP  RH WIND       PRES   REMARKS
ASHEVILLE      PTSUNNY   83  67  58 NW13      30.07F
JEFFERSON      CLOUDY    76  66  70 NE3       30.13S
MORGANTON      PTSUNNY   87  69  55 N6        30.05F
HICKORY        LGT RAIN  84  71  65 NE5       30.01F
RUTHERFORDTON  SUNNY     87  72  60 NW8       30.01F
MOUNT AIRY     CLOUDY    83  73  72 NW3       30.04S
BOONE          PTSUNNY   76  64  67 W8        30.14F
$$

NCZ021-022-025-041-071-084-088-231800-
CENTRAL NORTH CAROLINA

CITY           SKY/WX    TMP DP  RH WIND       PRES   REMARKS
CHARLOTTE      CLOUDY    88  68  51 N9        29.99F
GREENSBORO     CLOUDY    84  72  67 N5        29.99F
WINSTON-SALEM  CLOUDY    84  69  60 N7        30.01F
RALEIGH-DURHAM PTSUNNY   84  72  67 E5        29.97F
FORT BRAGG     MOSUNNY   88  74  62 CALM      29.94S HX  96
FAYETTEVILLE   MOSUNNY   88  74  63 N3        29.93F HX  96
BURLINGTON     CLOUDY    83  71  67 E5        29.98S
LAURINBURG     MOSUNNY   88  72  58 NE5       29.95S
$$

NCZ011-015-027-028-043-044-047-080-103-231800-
NORTHEASTERN NORTH CAROLINA

CITY           SKY/WX    TMP DP  RH WIND       PRES   REMARKS
ROCKY MT-WILSO PTSUNNY   83  72  69 VRB3      29.97F
GREENVILLE     MOSUNNY   82  73  74 E6        29.97F
WASHINGTON     SUNNY     81  71  69 E7        29.95F
ELIZABETH CITY LGT RAIN  75  73  93 E7        29.98S FOG
MANTEO         CLOUDY    81  72  74 NE13      29.97F
CAPE HATTERAS  PTSUNNY   82  71  69 E9        29.95F
$$

NCZ078-087-090-091-093-098-101-231800-
SOUTHEASTERN NORTH CAROLINA

CITY           SKY/WX    TMP DP  RH WIND       PRES   REMARKS
LUMBERTON      MOSUNNY   89  74  60 CALM      29.92F HX  98
GOLDSBORO      PTSUNNY   84  79  83 N6        29.93S HX  96
KINSTON        MOSUNNY   84  73  70 E5        29.96F
KENANSVILLE    MOSUNNY   85  72  65 SE3       29.94F
NEW BERN       PTSUNNY   86  73  65 SE5       29.96F
CHERRY POINT   PTSUNNY   85  75  72 NE12      29.95F
BEAUFORT       MOSUNNY   84  76  76 VRB6      29.94F
JACKSONVILLE   PTSUNNY   81  75  82 SE8       29.95R
WILMINGTON     PTSUNNY   84  76  76 E9        29.93S
$$




USA.gov is the U.S. government's official web portal to all federal, state and local government web resources and services.